Hourly Data Report for April 24, 2021

NANAIMO A
BRITISH COLUMBIA
Current Station Operator: NAVCAN

49°03'16.000" N
123°52'12.000" W
28.00 m
1025365
YCD

Download Data

Hourly Data (April 2021)
Hourly Data Report for April 24, 2021
TIME
LST
Temp Definition
°C
Dew Point Definition
°C
Rel Hum Definition
%
Precip. Amount Definition
mm

Wind Dir Definition
10's deg

Wind Spd Definition
km/h
Visibility Definition
km
Stn Press Definition
kPa
Hmdx Definition


Wind Chill Definition


Weather Definition


00:00 10.0 4.2 67 LegendMM 26 6 LegendMM 100.70     LegendNANA
01:00 8.6 5.7 82 LegendMM 26 11 LegendMM 100.66     LegendNANA
02:00 8.0 6.7 92 LegendMM 22 4 LegendMM 100.63     LegendNANA
03:00 7.7 6.7 93 LegendMM 27 7 LegendMM 100.60     LegendNANA
04:00 7.3 6.9 97 LegendMM 27 4 LegendMM 100.55     LegendNANA
05:00 7.1 6.7 97 LegendMM 17 4 LegendMM 100.53     LegendNANA
06:00 7.2 7.0 99 LegendMM 26 5 LegendMM 100.52     LegendNANA
07:00 7.8 7.5 98 LegendMM 29 3 LegendMM 100.50     LegendNANA
08:00 8.7 7.4 92 LegendMM 14 1 LegendMM 100.50     LegendNANA
09:00 9.1 6.7 85 LegendMM 10 2 LegendMM 100.49     LegendNANA
10:00 10.2 7.4 83 LegendMM 14 7 LegendMM 100.47     LegendNANA
11:00 10.8 8.0 82 LegendMM 13 7 LegendMM 100.45     LegendNANA
12:00 10.7 7.4 80 LegendMM 12 11 LegendMM 100.41     LegendNANA
13:00 10.5 8.8 89 LegendMM 11 10 LegendMM 100.38     LegendNANA
14:00 10.3 9.2 93 LegendMM 9 10 LegendMM 100.36     LegendNANA
15:00 10.3 8.9 91 LegendMM 12 8 LegendMM 100.32     LegendNANA
16:00 10.5 8.5 87 LegendMM 11 8 LegendMM 100.30     LegendNANA
17:00 10.4 8.3 87 LegendMM 12 8 LegendMM 100.28     LegendNANA
18:00 9.9 8.4 90 LegendMM 11 8 LegendMM 100.26     LegendNANA
19:00 9.7 8.8 94 LegendMM 12 2 LegendMM 100.23     LegendNANA
20:00 9.3 8.9 97 LegendMM 13 3 LegendMM 100.25     LegendNANA
21:00 9.0 9.0 100 LegendMM 6 3 LegendMM 100.28     LegendNANA
22:00 9.1 9.1 100 LegendMM 28 2 LegendMM 100.27     LegendNANA
23:00 8.9 8.7 99 LegendMM 27 5 LegendMM 100.26     LegendNANA

Notes on Data Quality.

Legend

  • E = Estimated
  • M = Missing
  • NA = Not Available*
  • [empty] = Indicates an unobserved value
Date modified: